Theta_e
308 307 307 307 307 307 307 307 307 308 308 308 307 307 307 307 307 307 307 307 306 305 305 305 305 305 305 305 306 306 307 306 305 305 306 305 306 306 307 308 308 308 309 310 310 309 309 309 310 310 311 311 311 310 309 309 309 312 314 314 313 313 312 312 311 310 308 308 307 307 307 309 308 305 305 305 305 304 304 305 306 307 307 306 305 304 303 304
308 308 307 307 307 307 307 307 307 308 308 308 308 308 307 307 307 307 307 307 306 305 305 305 306 306 306 306 307 306 307 307 305 305 305 305 305 305 306 307 308 308 308 309 310 309 309 309 310 310 311 311 310 310 309 308 309 311 312 312 313 313 310 308 310 308 306 307 308 307 306 308 308 306 305 305 306 305 305 306 305 305 306 307 305 303 302 303
308 308 308 307 307 307 307 307 307 307 308 308 308 308 308 308 308 308 307 307 306 306 305 307 307 307 306 306 306 306 307 307 305 304 305 305 305 305 305 306 307 308 308 309 309 309 309 309 310 310 310 311 309 309 310 309 309 309 310 313 312 310 307 304 306 306 304 306 307 307 305 305 306 306 304 305 307 305 306 307 306 305 306 307 307 304 302 303
308 308 307 307 307 307 307 307 307 307 308 308 308 308 308 308 308 308 308 307 306 306 306 307 307 306 307 306 306 306 307 307 305 304 305 305 305 305 305 305 306 308 308 309 309 309 309 310 310 309 310 311 309 308 309 308 308 308 309 312 309 306 306 304 303 304 303 304 307 307 305 305 305 304 304 305 306 306 306 307 307 306 306 307 307 305 303 302
308 308 307 308 307 307 307 308 308 308 308 308 308 308 307 307 308 308 308 308 306 306 306 306 307 306 307 307 306 306 308 309 306 304 305 305 305 305 306 306 306 307 308 309 308 309 309 310 310 310 310 311 309 309 309 306 306 308 306 306 304 304 305 303 302 303 303 304 305 305 305 305 305 303 304 305 306 307 308 306 306 306 306 307 306 305 304 302
308 308 307 307 307 307 307 308 308 308 308 308 308 306 305 306 306 307 308 308 307 306 306 306 306 306 307 308 306 306 308 309 306 304 305 305 305 306 306 306 306 306 307 308 308 309 309 310 310 310 311 311 310 309 308 305 306 308 305 302 302 303 304 302 301 302 302 303 305 305 305 304 304 305 304 304 306 307 307 306 305 306 306 306 305 304 304 303
308 308 307 307 307 307 307 307 307 307 308 308 307 305 305 306 306 307 307 307 306 306 306 306 307 306 307 308 307 306 306 306 305 305 305 305 305 306 306 306 306 306 307 308 308 309 309 309 310 309 311 311 309 308 306 304 305 308 307 303 302 302 303 302 301 302 302 303 304 304 304 304 305 306 304 303 305 306 306 305 305 305 305 305 305 304 304 303
308 308 307 307 307 307 307 307 307 307 307 307 307 305 305 306 306 307 307 306 306 306 306 306 307 306 307 307 307 306 305 305 304 305 305 305 306 305 306 306 306 306 306 308 308 309 308 309 310 308 311 311 308 308 306 305 307 308 307 303 302 302 302 302 302 303 302 302 302 302 304 304 304 304 302 303 305 305 305 305 305 305 305 305 304 304 304 303
308 308 307 307 307 307 307 307 307 307 307 307 307 305 305 306 307 307 306 306 306 306 306 306 306 306 306 306 307 307 306 305 305 305 305 305 305 305 306 307 307 307 306 307 308 309 309 309 310 309 311 309 308 308 305 307 309 307 305 303 303 302 301 302 302 303 302 301 301 302 304 304 302 302 303 304 305 305 304 304 304 304 304 304 304 304 304 303
308 308 307 307 307 307 306 306 306 306 306 306 307 306 305 305 306 306 306 306 305 305 305 306 306 306 306 306 306 307 306 305 305 305 305 305 305 306 307 307 308 308 307 307 307 308 308 309 309 309 309 308 307 308 305 308 308 304 303 303 303 302 301 302 302 302 302 301 301 303 305 303 301 301 304 306 305 304 304 304 304 304 304 304 304 304 304 303
308 308 307 307 307 306 305 305 305 305 306 306 306 306 306 305 305 305 305 306 305 305 306 306 306 306 306 306 306 307 306 305 305 305 305 305 306 307 307 308 307 308 308 307 307 307 308 308 309 309 309 308 307 307 305 305 304 302 303 304 304 303 302 302 302 301 302 302 301 302 303 302 300 301 304 305 304 304 303 303 303 303 304 304 304 304 304 303
308 308 307 307 306 305 305 305 305 305 305 305 306 305 306 305 305 305 305 305 305 305 306 306 306 306 306 306 306 306 305 306 305 305 305 305 306 307 307 307 307 308 308 308 308 307 308 308 308 309 308 308 308 307 305 302 302 303 304 306 306 304 304 303 302 301 302 303 301 301 304 303 301 302 305 305 304 303 302 302 303 303 303 303 304 304 303 303
308 308 307 306 305 305 305 306 306 305 305 305 305 305 305 305 305 305 305 305 305 305 306 306 306 306 306 306 306 305 306 306 306 306 305 305 306 307 307 307 307 307 308 308 308 308 308 308 308 308 307 308 308 307 305 302 303 305 305 307 307 308 308 303 301 301 301 303 301 302 307 308 305 303 305 305 304 303 302 302 302 303 303 303 303 303 303 302
308 307 306 305 305 305 306 306 306 306 306 305 305 306 305 305 305 305 305 305 305 306 306 306 307 306 306 306 306 306 306 306 306 306 305 305 306 307 306 306 307 308 308 308 308 308 308 308 308 308 307 307 306 305 306 304 306 307 307 307 307 309 309 303 301 302 302 302 301 302 307 309 308 306 305 304 304 303 302 303 303 303 303 303 303 303 303 302
308 307 306 306 306 306 306 306 307 306 306 306 307 307 307 306 305 305 305 305 306 307 307 307 307 307 306 306 306 306 306 306 306 305 305 305 306 307 306 306 307 307 308 308 308 308 308 308 308 307 306 305 306 306 308 307 306 306 308 309 308 308 309 305 301 302 303 302 301 304 306 308 309 307 304 304 303 302 302 303 303 303 303 303 303 302 303 302
308 307 307 307 307 307 307 307 307 306 307 308 308 308 308 308 306 305 306 305 306 307 307 308 308 307 307 307 306 306 306 306 306 305 305 305 305 306 306 307 307 307 307 308 308 308 308 308 307 306 305 306 307 309 309 308 308 307 307 310 308 306 308 307 303 300 302 302 302 304 306 307 308 305 302 303 303 301 301 302 303 303 303 303 303 302 302 302
307 307 307 307 307 307 307 307 307 307 308 308 308 308 308 308 308 306 306 305 306 307 307 307 307 306 307 307 306 306 306 306 306 306 305 304 305 305 306 308 308 307 307 307 307 307 308 307 306 306 306 306 307 308 309 309 309 308 306 308 307 306 306 307 306 301 300 302 303 304 304 305 306 305 304 303 303 301 300 301 302 302 302 302 302 302 302 302
307 307 307 307 306 306 307 307 307 307 307 307 307 308 307 308 309 307 306 306 306 306 307 307 306 307 308 306 306 306 306 307 306 306 305 305 305 306 306 308 308 308 307 307 307 306 307 306 306 308 308 307 307 308 309 309 308 308 307 308 307 306 305 306 307 303 301 303 304 304 303 304 305 306 306 305 303 302 301 301 302 301 301 301 300 300 301 301
307 307 306 306 306 307 307 307 307 307 307 308 308 308 308 309 310 308 306 306 306 307 309 307 306 308 308 306 306 306 306 306 306 306 306 305 305 306 307 307 308 308 308 308 308 306 306 307 308 309 309 308 308 309 309 308 307 308 307 307 307 307 307 306 306 302 301 303 304 304 305 305 305 306 307 306 303 302 301 301 301 301 301 300 299 299 300 301
306 306 306 306 307 307 308 307 307 307 307 308 309 309 308 309 311 309 306 306 306 306 307 306 306 306 306 306 306 306 306 306 306 307 307 306 306 307 307 307 308 309 308 310 309 304 304 309 309 309 310 309 307 305 305 304 304 306 306 305 306 306 306 307 304 301 300 303 305 305 304 304 305 305 306 305 303 302 302 301 301 301 300 299 298 298 299 301
306 306 306 307 308 308 308 308 307 307 307 308 308 309 308 308 310 309 306 306 305 305 305 305 305 305 305 305 306 306 305 305 306 306 307 307 307 307 307 307 309 310 307 305 307 305 305 309 309 308 306 304 302 300 301 303 303 305 305 304 305 305 306 306 302 300 300 301 305 305 303 304 304 304 306 305 303 302 302 301 301 301 300 299 298 298 300 301
306 307 307 308 308 308 307 308 308 307 307 307 307 307 307 307 308 308 307 307 306 305 305 305 305 305 305 305 306 306 305 306 306 307 307 307 307 308 308 308 310 310 306 304 307 308 308 310 308 303 301 300 300 299 301 303 303 304 304 304 306 306 306 305 301 299 299 301 304 304 302 303 304 304 305 304 302 302 301 300 300 300 299 299 299 300 301 302
307 307 307 307 307 307 307 308 308 307 307 307 307 307 307 307 307 307 308 308 307 305 305 306 305 305 305 306 306 306 305 305 306 306 307 307 307 307 307 309 311 310 308 309 309 309 310 308 303 299 299 301 301 300 302 304 304 304 304 305 307 305 305 306 303 299 300 301 302 302 301 303 304 305 305 301 298 299 299 299 299 298 299 299 300 301 302 302
307 307 307 307 307 307 307 307 307 307 307 307 307 306 307 307 307 308 308 307 308 307 306 306 306 305 305 306 305 306 306 305 306 306 306 307 307 306 307 307 309 310 308 309 309 310 309 303 297 298 300 301 302 301 302 305 306 305 303 305 306 305 303 305 303 301 302 302 299 301 305 307 306 306 306 302 298 299 299 298 299 299 299 300 301 302 302 303
307 307 307 307 307 308 307 307 307 306 307 307 307 307 307 307 307 307 308 308 309 308 307 306 305 305 305 306 306 305 306 305 305 305 305 306 306 307 306 304 306 309 309 308 308 309 307 299 297 300 300 301 303 303 303 304 306 306 304 303 303 303 302 302 302 301 305 305 300 302 308 309 307 307 308 305 302 303 301 299 300 300 300 302 302 303 303 304
307 307 307 307 307 307 307 307 307 306 307 308 307 307 307 307 307 307 308 311 310 307 308 306 305 306 306 306 305 304 306 306 305 305 305 305 305 306 307 305 304 307 308 307 306 306 303 297 297 301 301 302 303 303 303 302 305 306 303 299 300 300 300 301 301 302 305 306 302 301 306 308 308 308 307 303 303 305 304 302 303 301 301 302 303 303 303 303
307 307 307 308 308 308 307 307 307 306 307 308 307 307 307 307 307 307 308 313 309 306 308 307 305 306 306 305 305 305 308 307 304 305 304 304 305 305 307 308 306 305 303 304 306 305 301 298 298 299 301 302 303 304 302 301 305 306 299 297 299 300 300 301 300 302 303 303 302 300 303 305 307 307 305 302 305 307 306 306 305 303 302 302 302 302 302 301
307 307 307 308 307 308 307 306 307 306 307 307 306 307 307 307 307 307 310 311 307 306 308 307 305 306 305 305 305 305 306 305 306 307 303 304 305 304 307 309 308 308 302 304 308 306 301 302 301 300 302 303 304 302 300 301 304 303 297 297 299 299 300 300 300 302 301 301 304 302 301 304 307 307 304 302 305 306 305 306 305 304 302 301 301 301 300 301
307 307 307 307 307 307 307 306 306 306 306 306 306 307 308 307 307 309 311 308 305 307 307 306 306 305 304 305 305 304 304 304 306 306 303 304 305 304 306 306 305 307 302 304 308 305 301 301 300 301 303 303 302 298 296 300 302 300 296 297 298 297 299 299 300 302 300 302 306 303 301 304 307 308 306 305 306 305 305 305 304 304 303 301 301 300 300 300
307 308 307 307 307 306 306 306 306 306 306 306 306 307 308 308 309 310 309 306 306 307 306 306 307 305 305 307 306 304 303 304 303 303 303 304 303 303 304 303 303 305 303 303 305 303 299 299 300 301 301 300 299 296 295 298 299 298 298 299 300 299 298 299 300 301 302 305 303 299 299 302 306 308 307 306 305 303 303 303 303 303 302 301 300 300 300 300
307 308 308 308 306 306 306 306 305 306 306 306 307 308 308 309 311 310 306 306 307 307 307 308 306 304 306 307 306 305 305 304 302 303 305 303 303 304 303 304 305 305 305 305 305 302 299 301 302 301 299 297 298 299 297 296 297 298 300 302 304 303 301 301 301 300 305 307 301 297 298 300 304 307 307 306 304 301 301 302 302 302 301 300 300 300 299 298
308 308 308 307 306 306 306 305 306 305 305 306 307 308 309 309 310 309 307 306 308 308 307 307 305 305 305 304 304 304 304 304 302 303 305 303 304 304 303 304 304 306 308 307 306 305 302 302 301 299 298 297 299 302 300 299 299 300 302 303 305 307 306 305 305 304 306 305 299 297 299 301 304 306 306 305 303 301 301 301 301 300 300 300 299 299 298 298
308 307 307 306 305 306 306 305 306 305 306 307 306 308 311 309 308 309 309 308 306 304 304 304 304 303 303 305 304 301 302 304 303 303 303 302 304 302 299 299 300 304 306 305 305 306 305 302 300 300 300 298 299 303 304 303 301 302 303 304 305 306 306 307 307 306 306 303 298 296 299 302 305 305 304 303 302 301 299 299 299 299 299 299 298 298 298 297
307 307 306 305 305 306 306 306 305 305 306 306 307 309 309 308 307 306 308 308 305 303 303 303 303 302 303 304 302 300 302 304 302 302 303 303 305 304 302 300 299 301 303 304 304 305 306 306 302 301 300 298 298 299 300 301 302 301 300 301 304 305 305 307 307 306 307 304 299 297 300 304 306 304 302 301 300 299 298 298 298 298 298 298 298 298 297 297
307 306 305 305 305 306 306 305 305 305 305 307 311 311 309 310 308 305 307 306 303 304 304 301 301 304 304 302 300 298 301 303 301 301 303 303 304 305 303 301 299 300 302 305 304 302 305 306 300 297 297 296 298 297 296 299 302 300 298 301 304 303 304 305 303 302 302 302 301 299 302 304 305 303 301 300 300 299 299 299 299 299 298 298 298 297 297 297
306 305 305 305 306 306 306 305 305 305 305 309 314 312 310 310 305 303 306 304 302 303 304 303 303 305 306 304 302 300 299 301 301 303 303 303 303 302 301 299 298 298 301 304 305 302 305 305 298 296 297 295 296 297 295 299 302 300 300 302 301 298 301 304 302 298 298 301 303 302 303 304 304 303 302 301 301 300 300 300 299 299 298 297 297 297 297 296
305 305 306 306 306 305 306 305 305 305 306 309 312 310 308 306 301 302 303 302 302 300 302 305 304 304 306 305 304 304 301 300 301 303 304 303 302 301 300 299 297 297 298 300 303 302 303 305 299 297 299 296 294 296 296 296 299 301 302 301 298 296 299 301 302 301 302 304 304 302 303 304 304 304 303 301 301 300 299 299 299 299 298 297 297 297 296 296
305 306 306 306 306 305 305 305 305 306 306 309 313 310 306 303 301 301 301 300 301 300 301 305 303 302 305 305 305 303 302 304 303 303 304 304 303 301 300 300 298 296 296 297 301 301 301 305 301 295 298 298 294 296 299 297 296 299 300 298 298 301 302 301 301 303 304 305 304 302 302 303 303 304 304 302 300 299 299 299 299 298 298 297 297 296 296 295
305 306 306 306 306 305 305 305 304 305 307 309 313 310 304 303 301 299 301 301 300 301 303 304 302 301 303 303 304 302 301 304 303 303 303 303 303 300 299 300 299 297 296 296 301 301 300 304 303 297 296 297 297 299 302 301 297 297 298 297 298 300 301 301 300 301 302 303 304 303 302 303 304 303 303 301 299 298 298 298 298 298 297 297 296 296 296 295
305 306 306 307 306 305 305 305 304 308 310 308 309 307 302 302 301 299 301 301 299 301 303 302 301 302 303 302 302 301 300 301 301 302 303 302 302 302 298 298 299 298 297 296 299 300 300 302 304 300 297 298 301 301 302 303 301 299 300 300 299 298 298 299 299 299 300 302 303 303 303 304 303 302 301 300 298 298 297 297 297 298 297 297 296 295 295 295
305 307 307 305 305 305 306 306 304 306 310 307 304 304 302 303 302 299 300 300 299 299 300 300 300 301 302 302 300 299 300 300 299 301 302 301 302 302 298 295 297 297 298 299 299 300 301 301 303 302 301 302 302 298 296 298 299 300 301 301 301 300 299 300 301 298 297 299 301 301 302 304 302 300 300 299 298 298 297 297 298 297 297 296 295 295 294 294
305 308 307 305 306 305 306 308 302 299 305 306 303 302 303 303 301 299 300 300 299 299 298 299 299 300 301 301 300 299 300 301 300 301 302 301 300 301 298 294 294 295 297 300 299 298 299 300 301 302 303 302 298 294 293 294 294 296 298 298 299 300 300 302 303 299 297 297 298 297 299 301 300 299 299 299 298 298 297 297 297 297 296 296 295 294 294 294
304 306 306 306 306 304 305 309 305 303 305 303 300 300 301 301 300 299 299 299 299 299 299 300 299 300 300 299 299 300 300 301 301 301 301 300 298 297 295 294 294 294 296 299 299 297 298 300 301 302 303 299 295 293 293 292 294 297 297 296 297 298 299 300 299 298 297 298 298 298 300 301 300 299 299 299 298 297 298 297 297 296 295 295 294 294 294 293
304 305 305 306 306 304 307 310 308 309 308 301 300 301 300 299 299 299 299 299 299 299 300 301 299 300 299 298 299 300 299 301 302 300 300 300 299 295 293 294 294 295 296 298 298 298 300 301 301 302 303 302 300 299 297 295 296 298 298 295 294 297 298 297 295 295 297 299 300 300 302 302 300 299 299 300 299 298 298 297 296 295 295 294 294 294 293 293
304 305 304 305 305 305 307 307 306 310 310 306 303 301 300 300 299 299 299 299 298 298 299 300 298 298 299 297 299 299 298 300 301 299 299 299 297 293 293 295 294 294 296 295 295 296 299 300 300 302 303 303 303 304 302 300 299 298 297 295 294 296 298 298 296 296 298 298 298 299 301 302 301 300 300 300 299 297 297 296 296 295 295 294 294 293 293 293
305 306 306 306 305 304 304 302 303 307 308 307 304 300 301 302 299 297 299 299 298 297 298 299 298 298 299 298 300 301 299 298 299 299 300 300 298 293 292 295 294 293 295 294 294 295 297 298 299 301 302 303 304 303 299 299 299 299 299 299 297 296 295 296 297 298 298 298 298 299 299 300 300 299 299 299 297 296 296 296 295 294 294 294 293 293 293 292
305 306 306 306 305 304 303 302 301 302 302 302 302 300 301 302 299 297 299 299 298 298 297 298 298 299 300 300 301 301 300 298 298 299 300 301 298 293 290 293 294 293 295 295 293 295 298 299 298 299 301 301 301 300 297 297 298 298 299 300 299 297 295 296 297 298 298 298 299 299 298 298 299 298 298 298 296 295 295 295 294 294 293 293 293 293 292 292
305 305 302 303 304 304 305 304 300 299 299 299 300 299 301 303 302 300 301 298 298 298 298 299 299 299 299 299 300 301 301 300 301 302 302 300 299 296 294 293 293 293 294 294 293 294 298 300 297 297 299 298 297 298 297 296 296 297 297 297 297 297 296 296 297 298 297 297 298 299 298 298 298 297 297 296 295 295 294 294 293 293 293 293 293 293 292 292
304 304 302 302 303 302 302 302 299 300 300 299 300 300 301 304 303 300 299 299 299 298 298 301 301 299 298 298 299 301 302 301 302 303 303 301 300 300 298 297 295 293 293 294 293 292 296 300 298 296 297 297 296 296 296 295 296 296 296 296 296 296 295 295 296 296 295 296 296 296 296 296 296 296 296 295 295 294 294 293 293 293 293 293 292 292 292 292
304 304 303 302 302 300 299 300 299 301 300 299 301 301 299 302 303 299 297 299 301 299 297 300 301 299 298 297 298 300 301 299 299 300 300 300 300 300 299 298 297 295 294 295 294 292 295 299 297 295 298 299 296 294 294 295 295 295 296 296 295 295 295 294 294 295 295 295 295 295 295 296 296 296 295 294 294 293 293 293 292 292 292 292 292 292 292 292
303 304 303 304 303 300 299 299 298 301 303 300 301 301 300 302 301 299 298 298 298 299 299 299 301 299 297 297 298 300 299 297 297 298 297 297 298 298 297 296 297 297 296 294 294 294 294 296 295 295 299 300 297 294 295 295 294 295 296 296 295 295 296 295 295 296 295 295 295 295 296 296 295 295 294 294 294 293 293 293 292 292 292 292 292 292 291 291
303 304 304 304 304 300 298 299 297 300 303 301 299 300 300 300 298 297 300 299 297 299 299 298 298 299 299 300 300 299 298 297 297 297 296 297 296 296 295 294 295 297 298 295 293 292 293 295 296 295 299 301 297 295 296 296 296 297 296 294 294 295 295 295 295 295 295 295 295 295 295 295 294 294 293 293 293 293 293 292 292 292 292 291 291 291 291 290
Wind_Speed
7 7 7 7 6 6 6 5 5 6 6 5 4 4 3 3 4 4 4 4 3 3 3 4 5 7 7 6 6 6 7 7 5 2 2 4 4 2 2 3 4 4 4 5 4 2 1 1 2 3 3 4 4 5 6 5 6 4 2 3 3 3 4 4 7 5 1 2 7 10 13 10 7 9 11 8 10 10 10 15 17 20 23 16 13 12 14 22
6 5 5 5 5 4 5 4 4 4 4 4 3 3 3 3 3 3 3 3 3 2 3 4 5 5 5 5 5 4 5 5 4 3 3 4 3 1 1 3 4 4 4 4 5 3 1 2 3 4 3 3 3 4 4 3 3 1 1 3 3 1 1 1 4 6 2 2 7 10 13 11 7 8 11 8 8 10 10 13 18 19 22 22 17 16 15 21
5 5 4 4 4 3 4 4 4 3 3 2 2 2 2 3 3 3 3 3 2 2 3 3 3 3 5 8 8 4 2 3 3 4 4 4 3 1 1 3 4 5 5 5 5 3 1 2 3 3 4 3 3 4 3 2 1 1 1 4 2 2 2 2 2 6 3 2 7 9 11 11 7 8 11 9 7 9 12 13 15 19 24 26 22 20 18 20
5 4 4 4 4 3 3 3 3 3 2 1 1 1 2 3 3 2 3 3 2 1 1 0 2 4 6 9 8 1 2 1 3 6 5 4 3 2 0 2 3 5 6 5 5 3 2 2 2 3 4 3 3 3 2 2 1 2 1 3 2 3 2 3 3 6 3 2 7 7 9 9 9 11 11 9 7 8 16 20 19 22 25 26 24 23 21 21
5 4 4 4 4 3 2 2 2 2 1 1 2 3 4 4 4 3 3 3 2 1 2 2 3 4 5 8 8 3 2 1 3 7 5 4 4 3 1 1 2 5 6 6 5 3 3 2 2 3 3 3 2 2 2 2 3 3 1 2 2 2 1 4 5 7 6 4 7 7 7 7 8 12 14 13 10 9 13 20 22 23 23 22 22 23 23 22
5 4 3 4 5 3 2 1 1 1 1 2 3 4 5 4 3 2 2 2 3 3 3 4 4 4 4 6 8 5 1 1 3 6 5 5 6 5 3 1 1 3 6 7 6 4 4 3 3 2 2 2 1 1 2 2 2 1 1 1 2 1 2 7 7 6 6 6 6 7 7 7 8 10 13 18 21 17 15 15 16 20 23 22 20 21 23 22
5 4 3 3 4 4 3 2 2 3 3 3 3 5 5 4 2 1 1 2 3 3 4 4 4 4 3 4 6 5 4 3 3 5 5 6 6 5 5 3 1 2 5 7 7 5 5 4 4 3 3 2 1 2 3 2 0 1 2 4 2 2 5 8 7 5 5 6 6 7 8 7 9 8 7 19 29 27 24 21 16 16 20 23 22 21 22 22
5 3 2 2 3 4 4 4 4 4 4 3 3 5 6 4 3 3 3 3 4 4 4 3 2 2 2 4 4 3 4 5 4 5 5 6 6 6 6 5 4 0 5 7 7 6 5 5 5 5 2 2 3 3 2 2 1 1 3 5 4 4 6 7 6 6 5 7 7 7 8 7 10 8 8 22 31 27 28 27 22 18 18 22 25 23 23 23
4 3 2 2 3 5 5 5 5 4 3 3 3 4 6 4 3 4 4 4 5 5 5 3 2 2 3 4 3 1 3 6 4 4 6 6 5 7 7 6 5 2 3 5 7 6 5 5 7 5 2 4 6 3 1 1 1 2 5 7 5 5 6 6 4 5 6 6 6 7 8 7 8 8 13 26 29 26 27 28 27 25 22 22 24 26 26 25
5 3 3 3 4 5 5 5 5 4 3 3 2 3 5 4 3 3 3 3 3 4 4 4 4 4 4 4 2 0 3 5 4 4 5 5 5 6 6 6 6 5 1 3 6 7 6 5 6 5 4 7 6 3 1 1 2 6 9 7 5 4 5 4 3 4 4 4 5 7 7 5 4 4 10 15 13 16 20 24 27 27 28 26 24 26 26 27
5 4 3 4 5 6 6 6 6 5 3 3 2 3 4 4 3 2 1 2 2 3 3 4 5 5 4 4 2 2 3 3 3 3 4 5 6 4 4 6 8 7 5 2 3 5 5 4 5 5 3 6 6 5 3 4 7 9 10 7 4 2 3 4 4 4 4 3 3 5 8 5 4 5 15 17 12 12 13 17 22 24 28 29 28 27 27 28
5 3 4 5 5 6 6 7 7 6 5 4 3 3 4 4 4 2 0 1 1 3 2 3 6 6 3 4 5 3 2 3 3 2 2 4 4 3 4 6 8 8 8 5 3 4 5 6 7 3 4 8 6 3 6 8 7 6 5 3 2 2 4 6 5 4 4 2 2 2 8 8 10 13 22 20 16 14 12 15 18 21 24 26 28 28 29 29
4 4 5 5 5 5 6 7 7 7 6 6 5 5 5 5 3 2 0 1 2 4 2 3 6 4 2 3 4 4 3 4 3 2 2 2 2 3 4 6 8 9 8 5 5 6 6 7 4 4 9 9 4 4 7 7 3 3 1 2 2 3 3 4 3 2 3 3 2 1 7 6 11 20 22 15 14 13 13 16 17 19 22 23 26 28 29 29
3 4 5 6 5 5 6 7 7 6 6 6 6 6 6 4 3 2 1 1 3 4 3 4 5 3 1 3 3 4 4 4 4 2 1 1 2 2 4 6 8 9 8 5 5 6 6 5 3 6 10 8 8 10 7 3 0 1 1 2 1 4 0 4 3 3 3 3 4 3 6 9 6 14 18 15 15 14 13 16 18 20 21 22 24 26 29 30
2 4 6 6 6 6 6 6 6 6 5 6 6 6 6 4 3 2 3 3 3 3 3 3 4 2 2 3 1 4 4 3 2 1 1 3 3 1 3 5 6 7 8 6 5 7 7 6 5 7 9 10 11 7 2 1 0 1 3 2 1 3 1 2 3 3 3 2 6 5 5 11 10 5 12 13 13 15 16 15 18 21 21 22 23 25 28 29
2 3 5 5 6 5 5 5 5 5 5 5 6 7 7 6 4 3 3 4 2 2 3 2 2 1 1 0 0 1 3 1 1 1 2 2 3 2 2 4 5 6 7 7 7 7 6 5 8 10 8 7 6 2 1 2 2 1 2 4 1 3 4 1 3 2 2 1 6 7 4 10 9 3 8 8 9 13 16 17 20 23 23 23 24 25 27 28
3 3 4 5 5 5 4 5 4 4 6 6 7 8 7 7 6 4 4 3 2 2 2 1 2 2 0 1 2 1 2 1 1 1 2 2 3 3 1 2 4 5 5 6 6 5 3 4 7 7 4 2 0 1 2 4 4 2 2 3 3 3 4 3 1 3 1 2 5 7 7 13 15 10 9 10 12 15 16 19 21 23 25 26 27 28 28 29
4 4 4 6 6 6 5 4 5 6 8 9 8 7 6 7 7 5 4 3 3 4 3 2 2 3 1 1 2 2 1 3 2 1 2 3 4 3 1 1 1 2 2 3 4 4 4 5 4 1 1 2 2 4 4 4 2 2 3 4 3 3 5 6 3 1 2 3 6 7 9 16 21 22 20 15 15 19 20 21 21 22 23 24 27 29 29 29
4 5 7 7 7 6 5 5 6 7 9 9 7 5 4 5 4 3 4 4 4 3 2 1 1 1 1 2 1 2 2 2 3 1 2 3 4 4 2 0 0 0 1 2 2 5 3 3 2 2 2 3 3 4 5 3 2 3 3 4 6 5 6 5 1 1 0 3 9 10 10 14 19 21 22 16 13 18 21 21 21 20 19 19 23 27 28 28
6 7 6 7 7 7 7 7 7 7 8 8 7 4 3 4 2 1 3 3 1 2 1 1 1 1 1 1 3 1 3 1 2 2 1 4 4 5 4 2 1 0 1 1 1 4 2 1 4 3 2 1 1 0 1 2 1 2 2 4 6 6 7 3 3 3 1 3 8 8 8 13 18 21 22 17 12 15 18 18 19 18 17 16 18 23 26 25
6 5 6 8 8 9 9 9 9 8 7 6 6 4 4 4 2 0 2 2 3 3 3 2 1 1 0 1 3 2 2 2 2 4 2 2 4 5 3 1 2 1 2 1 1 2 0 4 3 1 2 3 3 2 2 2 1 2 3 4 4 5 7 2 3 2 2 2 6 4 7 13 18 22 19 13 11 13 12 14 16 15 13 12 15 20 21 20
5 5 7 7 8 10 10 10 9 9 7 6 6 5 5 6 3 3 3 1 3 3 4 3 2 2 2 2 4 3 1 2 1 3 4 1 3 2 1 1 1 0 1 0 1 0 2 3 1 4 6 7 5 2 1 1 1 2 2 3 4 3 4 2 3 3 2 3 5 6 9 13 18 20 14 8 8 9 9 11 13 12 10 10 12 15 15 13
6 6 7 8 9 10 10 10 9 10 8 6 7 6 5 6 5 5 3 1 2 2 2 3 2 2 3 3 5 4 0 1 2 4 6 2 1 1 0 1 1 1 1 1 2 2 3 1 4 5 5 5 3 2 2 2 3 3 2 4 5 1 2 3 1 2 3 4 7 9 9 11 13 12 5 2 3 6 8 10 12 12 10 9 10 10 9 8
6 6 7 8 9 10 11 10 8 10 8 6 7 6 6 7 6 6 3 1 1 0 1 2 2 2 3 4 5 4 2 3 4 6 7 3 2 1 2 2 1 2 1 1 2 4 2 2 4 4 2 2 2 2 3 4 3 4 5 5 6 2 2 5 3 6 6 4 4 9 8 5 3 4 1 2 1 5 6 7 9 10 8 7 6 5 5 5
7 7 8 9 10 11 12 9 9 11 8 6 7 7 7 7 7 6 3 1 1 1 1 1 2 2 3 5 5 3 1 3 5 6 6 4 2 1 2 3 0 1 2 2 1 4 1 3 4 5 2 2 2 3 4 4 4 3 5 4 5 3 2 5 5 8 6 2 0 6 8 2 2 6 6 3 4 5 2 3 4 5 4 2 1 1 2 4
8 8 9 10 10 11 12 9 10 11 8 6 6 7 7 6 6 6 3 0 1 1 1 1 0 2 3 5 6 3 0 2 4 5 5 4 3 1 2 2 1 1 3 2 0 1 1 3 2 2 3 3 3 4 3 4 4 4 1 1 1 1 2 5 5 6 5 3 1 2 5 5 3 7 6 5 7 6 4 1 1 1 1 1 1 1 3 5
8 9 9 10 11 12 11 9 11 11 7 5 6 7 7 6 6 6 3 0 1 1 1 1 1 1 4 6 6 4 2 3 4 3 3 3 3 1 1 1 1 1 3 2 1 1 4 3 3 2 3 4 4 4 3 6 4 2 1 2 2 0 4 4 3 4 4 5 2 3 4 6 5 4 2 4 5 7 9 6 5 4 4 4 4 6 8 10
9 10 10 11 12 12 11 11 11 9 7 6 6 6 7 7 6 5 2 0 1 1 1 1 1 1 6 7 5 3 2 4 3 1 3 3 2 1 2 1 1 1 2 3 3 0 3 4 6 5 4 4 2 2 1 6 4 1 2 1 2 1 3 2 3 4 2 5 4 4 4 4 5 2 2 1 1 8 9 7 9 10 13 15 15 17 18 19
9 10 11 12 13 13 12 11 10 9 8 6 5 5 6 7 6 2 1 0 1 1 0 2 1 3 10 6 2 4 2 2 3 3 3 1 2 1 1 1 3 4 2 2 3 1 1 1 3 4 3 2 1 4 2 2 1 2 3 1 1 2 0 1 3 3 1 3 3 2 3 3 4 2 1 1 2 7 7 6 8 11 15 19 22 24 25 25
9 10 12 13 13 13 12 10 10 8 7 5 4 5 5 6 3 0 0 1 1 1 2 2 1 5 9 3 1 4 2 2 6 5 1 1 2 2 3 3 4 3 1 1 2 1 2 1 1 1 1 1 4 3 3 2 2 2 2 2 3 4 2 1 1 1 2 3 1 3 1 3 3 2 0 1 2 4 5 4 6 10 14 18 23 26 26 27
10 11 12 13 13 13 11 9 8 7 5 4 3 5 5 3 1 1 1 1 0 2 2 2 2 4 5 2 1 4 3 3 7 5 2 1 1 2 2 2 2 1 1 2 2 1 2 1 1 1 1 2 2 2 2 2 2 1 2 4 5 3 2 2 2 2 3 2 2 2 3 3 4 4 2 2 2 3 2 3 6 10 13 18 23 26 26 27
11 12 13 14 14 12 10 8 7 5 4 3 3 5 3 1 0 1 2 2 1 2 2 1 2 3 3 1 1 3 2 2 5 4 2 2 1 2 1 1 1 2 2 0 1 1 2 1 1 2 2 1 2 2 2 2 2 2 2 2 5 5 2 3 2 2 2 0 2 1 2 3 7 8 6 6 5 5 2 3 5 8 11 18 23 26 27 28
12 13 14 15 13 12 10 8 6 4 3 2 3 3 1 1 1 1 1 3 2 2 1 1 1 1 2 2 0 2 2 1 4 3 1 1 1 1 1 1 2 3 2 1 2 2 0 2 2 2 2 1 2 2 1 1 1 2 1 2 4 4 4 5 4 2 3 0 2 1 2 3 7 4 2 5 8 7 5 3 5 8 12 18 22 24 27 28
13 14 15 14 12 11 10 8 5 3 2 1 1 1 2 1 1 1 1 2 1 1 1 1 2 1 1 1 2 2 2 1 3 3 1 1 1 0 1 1 1 1 1 1 1 2 2 1 1 1 0 1 1 1 3 1 1 1 1 2 3 2 4 6 4 4 6 3 2 2 1 3 3 2 5 4 7 8 6 6 8 11 15 19 21 22 24 26
14 15 14 12 11 10 9 8 5 2 1 0 1 2 1 2 1 1 1 1 1 2 0 1 2 2 0 1 1 1 0 0 2 2 1 1 1 1 1 1 1 1 1 2 0 1 3 2 2 2 2 1 1 1 2 1 1 1 1 1 2 1 2 4 2 2 5 5 2 3 2 3 3 1 4 6 7 7 5 7 9 12 15 18 19 20 23 25
14 14 12 11 10 9 8 7 3 1 1 1 2 1 1 1 1 1 1 1 1 2 2 1 0 1 1 0 1 2 1 1 2 3 1 0 1 0 1 1 1 1 1 2 0 0 2 1 2 1 1 2 1 0 0 2 1 2 2 1 1 1 2 4 2 1 2 5 2 2 3 4 4 3 5 8 5 4 7 11 12 12 14 16 17 19 21 23
13 12 10 8 8 8 8 6 2 0 1 2 2 0 1 0 0 1 0 1 0 1 3 2 1 2 1 1 1 1 1 1 1 2 1 0 0 1 1 1 1 1 2 2 1 0 2 2 2 1 1 3 1 0 2 2 2 1 2 1 3 0 1 1 3 2 4 7 3 2 4 5 3 2 5 7 5 7 8 11 12 14 15 16 17 19 20 22
11 10 8 6 7 8 7 5 2 1 3 2 0 1 1 0 0 1 1 0 1 0 1 2 1 1 1 1 1 1 3 3 1 1 2 1 1 1 0 1 1 1 2 2 1 1 2 3 1 1 1 2 0 2 1 2 2 2 1 2 1 3 2 1 2 4 4 6 4 2 2 5 4 3 4 2 6 8 10 11 12 14 16 16 17 19 21 24
10 8 5 5 7 8 6 4 1 3 3 2 1 1 0 0 0 1 2 1 1 1 1 1 1 1 1 1 1 1 2 3 2 1 1 1 1 1 1 1 1 1 1 1 1 1 1 2 1 1 1 1 1 3 3 2 3 1 0 1 1 2 3 1 1 2 3 6 7 2 1 4 3 3 3 2 5 7 10 10 10 12 14 14 15 18 20 22
9 6 3 5 8 6 4 2 2 2 2 1 1 0 0 1 0 1 2 1 1 1 1 1 1 1 1 1 1 1 1 1 1 1 1 1 1 1 1 1 0 1 0 1 1 1 2 1 2 1 1 3 2 2 2 1 2 2 3 2 1 1 1 2 1 1 2 5 6 5 5 4 1 2 3 5 4 6 7 8 8 10 13 13 14 17 20 23
8 4 2 6 8 4 2 2 3 3 1 0 0 0 0 0 1 2 3 2 1 0 0 0 1 1 1 0 0 1 1 1 1 1 1 1 1 1 2 0 1 1 1 1 1 1 1 2 3 2 3 4 1 2 3 3 2 1 2 2 2 2 1 3 4 1 0 4 4 5 8 5 1 2 4 6 4 5 7 9 10 13 16 17 17 20 22 26
6 2 3 7 6 2 1 2 3 2 0 0 0 1 1 1 1 1 2 3 1 0 0 0 0 1 1 1 0 1 1 2 1 1 2 2 0 2 1 1 0 0 1 0 1 0 1 1 3 5 5 2 2 3 3 3 2 1 1 1 0 1 2 4 5 1 1 2 1 2 6 5 0 3 5 5 3 5 8 12 15 18 20 21 23 25 26 26
6 4 4 5 4 2 1 1 1 1 1 1 1 1 1 1 1 1 2 3 2 0 1 1 1 1 1 1 1 1 2 2 2 1 1 1 0 2 1 1 0 1 1 0 1 1 1 1 2 5 4 1 2 2 2 1 1 1 1 1 1 1 0 2 3 1 2 4 3 4 6 3 2 5 6 4 3 6 11 15 17 21 24 26 26 25 26 27
7 4 3 4 4 2 1 1 0 1 1 0 1 0 1 2 2 1 1 2 2 1 1 0 1 1 0 0 1 1 1 1 1 0 0 1 0 2 2 0 1 0 1 1 0 1 2 1 0 4 5 1 1 1 1 1 1 2 1 2 1 1 3 1 1 1 3 6 7 8 8 2 4 3 3 3 4 10 16 17 19 23 26 29 29 27 27 29
5 2 2 4 5 4 2 2 1 1 0 1 1 1 1 1 2 2 1 1 1 2 1 0 1 1 1 1 1 1 1 1 1 1 1 1 1 1 2 1 1 0 1 0 0 0 2 1 1 4 5 3 4 4 2 2 0 1 1 2 2 2 3 2 2 3 4 4 6 8 9 6 5 8 14 12 9 13 17 20 24 25 27 29 29 29 29 31
3 1 2 3 5 6 6 6 3 1 1 1 1 1 1 0 1 2 2 1 1 1 1 0 1 2 1 1 2 2 2 1 0 1 1 2 0 1 2 1 1 1 1 0 1 0 1 1 4 6 6 6 8 5 2 2 5 6 6 2 3 3 2 2 3 4 4 2 5 8 10 14 15 16 17 13 11 13 16 21 25 27 29 30 27 28 30 32
2 1 2 2 3 6 7 7 6 3 1 1 1 0 1 2 1 1 2 2 1 2 1 0 2 2 1 1 2 2 1 1 1 0 1 2 1 1 0 0 1 2 1 1 0 1 1 3 2 4 7 9 10 7 1 1 7 11 10 6 2 3 4 5 7 7 3 4 6 6 7 13 16 17 16 13 13 13 16 22 25 27 30 30 28 29 32 31
3 1 1 0 1 2 2 5 7 4 3 1 0 0 1 2 2 1 2 1 1 2 1 1 2 3 2 1 1 1 1 1 2 2 1 0 1 1 1 0 1 1 0 0 0 1 2 3 1 1 5 7 9 10 6 5 7 7 7 9 6 3 5 7 9 10 5 6 10 11 13 16 18 19 15 12 13 16 18 23 26 27 30 29 28 31 33 29
3 2 2 1 0 1 1 3 3 2 2 2 0 1 1 1 1 1 1 1 1 1 2 2 1 2 2 2 1 1 1 1 2 2 1 1 1 1 1 1 1 1 1 0 1 2 2 2 2 1 6 8 6 6 4 2 4 4 5 7 7 5 6 8 9 11 8 10 14 17 20 19 15 13 12 14 17 19 21 24 26 28 30 30 31 35 33 26
1 1 1 1 1 2 1 1 1 1 1 1 0 1 1 2 2 1 2 3 1 1 3 3 1 1 1 2 4 4 2 1 2 3 2 2 1 1 1 1 2 2 1 0 2 2 1 1 2 1 5 5 0 1 0 2 3 4 3 3 4 4 4 4 5 7 6 10 13 15 17 15 8 8 14 18 19 19 21 25 28 31 32 32 34 35 30 23
1 1 0 1 1 1 1 1 1 0 0 0 0 1 1 2 2 1 2 4 3 1 3 3 0 2 1 1 4 6 4 1 3 4 3 2 3 1 1 1 2 2 1 1 0 0 1 1 1 1 5 4 2 1 4 1 2 2 3 8 9 6 3 1 4 5 6 10 13 13 11 8 7 13 18 21 21 21 21 24 29 33 34 35 34 30 23 22
2 1 1 0 0 0 1 1 1 0 0 0 1 1 1 1 2 1 1 3 4 3 3 3 2 1 1 1 3 4 4 3 4 4 3 4 4 3 1 1 2 1 2 2 0 1 0 2 0 2 4 3 1 6 8 3 2 3 5 9 9 8 6 5 6 8 9 10 10 9 8 8 12 16 19 20 23 24 23 25 28 32 36 37 30 22 21 29
Wind_Direction
38 35 32 34 38 43 53 67 72 75 73 60 51 50 43 38 38 37 35 37 48 61 80 83 85 85 73 57 50 44 41 36 32 50 103 87 84 104 138 160 171 183 198 211 207 202 275 299 245 205 163 140 143 130 126 119 127 150 185 222 221 200 194 188 185 178 85 129 160 177 190 201 200 192 203 217 216 220 230 221 217 213 215 217 205 202 197 194
42 39 30 30 39 49 60 78 91 87 78 58 38 35 24 11 11 4 3 16 36 65 90 91 87 73 44 20 5 353 4 21 27 27 55 67 68 82 181 178 175 176 180 194 198 204 271 261 227 210 190 145 127 134 131 100 105 130 175 231 231 183 146 148 178 164 103 114 160 178 191 205 213 188 195 217 217 209 225 225 221 224 223 223 215 207 206 200
46 44 34 33 43 61 72 83 97 95 79 57 26 23 17 358 360 358 354 9 29 76 108 100 69 29 10 360 344 311 310 18 27 8 25 43 42 36 219 197 186 177 172 180 190 207 239 218 204 203 191 145 114 135 127 83 98 89 205 241 234 99 93 78 180 164 122 107 159 174 189 208 225 190 194 220 223 206 222 222 213 225 228 225 221 215 214 208
43 42 39 39 47 71 83 81 92 98 85 49 349 341 338 334 335 342 350 4 21 75 161 147 357 355 3 1 354 304 199 116 23 358 3 19 24 30 284 207 194 187 182 180 187 207 209 193 172 178 168 128 91 123 91 30 119 113 232 274 79 121 129 111 183 178 162 167 169 167 179 211 223 203 201 212 227 223 228 228 223 229 232 227 224 219 216 213
32 32 43 47 48 71 93 96 97 102 98 342 319 319 317 313 306 307 329 352 4 340 279 281 304 333 358 8 16 54 187 193 3 346 351 11 19 31 44 214 216 197 191 189 193 203 203 196 174 172 153 114 76 120 73 46 111 115 5 347 97 169 144 124 159 177 182 174 165 167 178 209 211 210 214 210 226 240 236 239 238 238 237 232 229 224 219 216
21 22 45 53 53 62 63 57 27 6 352 328 330 337 333 325 311 297 312 346 1 345 310 295 294 312 342 11 25 44 49 346 346 340 356 19 21 28 43 43 268 208 199 198 196 200 204 201 191 169 113 94 32 52 79 89 155 149 89 118 149 206 134 143 153 163 174 171 170 183 199 211 203 218 225 220 232 243 251 256 249 243 237 233 231 227 225 223
14 14 38 51 45 40 28 7 345 334 330 333 342 352 354 357 4 28 40 35 27 3 337 316 300 306 334 5 14 36 54 44 356 349 13 25 22 23 33 38 4 222 202 198 198 209 207 203 199 159 114 93 110 95 69 80 210 300 134 154 155 121 144 155 162 171 178 196 201 201 214 212 206 228 236 232 240 244 251 258 252 246 238 232 229 226 227 229
9 9 21 30 20 7 360 348 337 323 322 337 348 360 7 16 42 65 71 71 56 24 8 1 346 325 314 339 346 10 32 24 7 3 20 22 22 31 33 31 23 202 200 199 201 212 213 212 200 169 118 87 136 131 80 108 117 57 139 163 150 124 155 162 173 203 209 220 221 212 224 219 216 239 258 251 256 254 251 252 248 245 239 233 231 230 230 232
6 4 3 10 5 353 347 342 335 322 320 333 342 3 14 27 59 70 74 77 64 42 38 47 42 359 308 322 324 318 3 2 4 12 25 24 26 39 32 24 30 47 195 198 203 214 223 217 205 203 184 125 131 124 86 233 201 98 133 153 153 142 165 171 185 215 213 215 216 222 232 230 231 255 266 262 265 263 254 250 247 243 240 236 234 235 236 236
1 355 358 7 1 357 358 353 346 336 332 333 335 357 10 28 59 71 79 79 63 42 42 47 34 13 359 348 323 348 360 353 7 14 20 27 40 46 28 25 42 41 74 193 214 215 219 227 210 201 169 134 127 93 35 274 127 122 128 129 131 146 166 181 193 192 204 218 213 238 257 240 222 244 263 261 259 260 255 246 244 242 241 240 237 238 239 239
358 357 5 7 6 17 24 23 19 15 5 358 358 353 357 9 23 47 104 98 53 22 40 43 20 6 4 12 41 74 5 2 29 12 15 39 53 60 37 41 46 41 53 103 202 207 217 221 191 181 150 143 128 76 75 112 115 124 131 127 110 134 194 199 195 182 200 227 200 255 278 240 169 212 248 252 253 259 254 243 241 241 241 241 240 240 241 241
1 6 11 10 19 38 42 36 33 36 35 35 34 16 5 357 358 15 155 171 10 356 30 25 5 2 350 13 47 64 22 31 54 21 31 55 69 79 52 42 37 37 47 61 125 163 178 163 169 180 138 148 139 87 108 112 115 125 133 166 156 203 219 191 184 183 201 222 154 278 279 230 182 219 244 248 255 260 251 243 241 240 242 242 242 241 241 242
1 17 24 23 38 49 43 32 25 30 35 36 34 24 15 4 2 20 58 215 309 331 329 326 341 354 10 41 50 50 33 33 39 49 60 73 106 91 45 30 28 37 44 53 113 135 151 153 166 155 134 135 121 122 123 106 124 141 102 287 227 241 233 171 166 164 196 217 152 236 290 260 196 215 236 242 246 251 245 245 244 244 245 243 243 242 242 243
10 39 42 41 49 44 36 30 21 25 32 31 28 18 6 1 1 351 305 284 320 333 321 327 341 341 54 87 57 34 33 22 15 22 82 156 142 89 30 29 31 40 51 62 112 131 131 128 129 126 124 119 118 125 119 91 147 162 274 266 245 273 265 124 152 162 196 194 159 193 273 284 245 206 220 235 242 244 241 244 247 248 249 248 247 245 246 246
43 59 53 48 40 27 22 18 12 22 37 34 28 18 6 352 340 323 303 301 321 348 338 343 6 8 103 99 48 25 21 15 13 346 207 183 168 117 35 39 41 50 64 77 102 114 109 109 115 103 99 115 128 133 122 119 87 5 269 238 164 262 268 130 154 180 236 151 165 208 251 280 291 195 199 225 234 238 239 241 246 249 249 250 250 250 251 252
67 70 54 31 15 4 2 5 16 29 31 21 6 359 358 349 337 304 303 309 290 333 347 342 355 359 122 80 215 25 2 12 149 177 163 167 174 166 57 51 63 68 77 90 99 107 108 106 106 99 102 125 138 181 202 203 218 158 262 275 224 237 288 327 129 145 290 124 192 225 260 284 288 156 178 216 231 237 240 242 246 250 250 251 254 255 256 257
49 55 35 19 18 20 25 33 31 11 353 343 332 330 337 341 336 309 296 296 255 274 309 317 301 255 199 255 218 240 352 41 73 106 128 165 171 163 113 58 67 74 86 98 96 100 100 98 108 103 99 112 86 240 240 260 251 169 210 266 255 232 273 287 155 105 127 205 224 221 235 267 272 265 252 251 256 255 248 248 251 253 255 258 260 260 260 261
36 44 52 52 48 42 37 23 355 341 338 333 325 320 320 324 321 313 301 276 256 261 260 287 277 230 147 110 212 241 358 53 55 116 158 179 174 172 161 52 50 75 115 123 84 69 79 100 128 128 116 158 189 210 244 282 304 303 258 259 283 242 238 258 258 102 146 216 243 228 231 260 272 279 278 264 256 258 254 256 257 257 258 259 262 263 263 263
54 74 74 57 41 30 15 353 338 338 344 345 342 333 327 324 307 312 334 300 259 250 243 278 284 210 126 63 13 230 193 59 54 96 183 192 190 189 186 262 284 98 204 200 65 53 68 108 159 222 213 202 206 223 257 324 360 301 281 276 284 271 256 258 223 87 154 248 251 243 245 264 274 281 285 278 259 258 259 262 262 259 259 258 261 265 267 269
80 86 59 31 26 22 13 3 352 346 350 359 3 2 4 347 300 272 354 4 137 162 176 190 113 92 105 27 12 236 213 267 15 13 236 212 209 199 210 269 256 253 4 271 14 52 53 240 232 246 245 193 147 182 310 42 46 257 245 263 261 264 276 276 100 108 125 266 261 251 254 273 280 280 285 291 279 265 262 263 264 262 261 259 262 268 271 274
82 68 30 23 24 16 12 10 4 358 358 8 15 24 26 360 341 357 355 61 106 115 120 126 114 72 40 337 4 4 224 229 342 356 353 231 211 205 226 276 241 243 41 359 300 77 87 254 247 228 86 99 109 104 100 106 108 239 237 265 265 252 267 303 85 127 147 260 266 270 279 280 282 281 288 300 290 279 273 268 271 273 270 268 270 275 277 278
65 44 29 25 18 11 8 5 5 6 0 2 11 21 23 10 9 357 338 125 117 105 99 77 72 58 32 17 14 15 198 187 354 354 7 333 212 206 221 171 187 262 57 262 243 140 239 248 88 91 107 106 99 103 127 157 183 223 232 267 278 267 275 302 86 114 164 252 285 303 301 285 277 281 297 317 299 291 283 271 275 281 279 276 279 282 283 280
51 42 33 21 13 8 4 358 359 2 357 352 359 4 7 4 3 352 341 146 125 105 91 53 53 39 30 27 11 11 87 123 18 3 6 360 176 118 141 130 98 125 143 221 243 263 270 287 90 105 127 128 116 136 167 185 210 228 237 262 272 329 318 269 89 69 221 237 291 296 287 273 271 279 296 323 304 299 287 277 276 281 279 274 276 280 281 284
34 28 21 13 10 5 1 357 355 358 356 348 347 349 347 347 352 350 348 127 123 140 109 28 25 27 29 14 358 4 70 70 38 9 6 27 105 61 60 84 117 175 154 73 233 249 278 56 112 129 134 161 163 170 192 228 251 228 217 246 274 314 294 263 329 327 274 208 276 294 285 259 255 295 289 141 266 285 285 286 282 285 288 276 269 275 288 303
15 9 5 0 1 359 356 356 355 354 352 345 340 335 334 336 341 341 348 110 154 336 315 327 20 26 12 359 358 358 80 65 29 5 12 32 50 48 93 92 185 185 119 114 211 258 291 93 148 154 149 187 203 219 210 228 268 254 219 243 287 325 306 279 318 324 295 218 63 333 317 295 72 326 328 30 332 312 306 287 288 292 296 278 259 354 13 1
3 359 353 349 350 351 352 354 352 351 351 345 333 327 327 325 328 332 348 134 197 3 331 255 343 3 350 353 5 1 264 41 1 353 17 25 29 82 134 97 25 66 135 154 202 282 92 106 158 171 179 184 221 252 206 191 260 289 254 39 6 14 301 291 316 317 299 300 11 18 299 279 333 325 337 358 329 353 48 32 349 313 259 191 132 46 19 358
354 350 343 342 342 344 349 350 346 348 351 339 323 321 321 317 322 326 332 279 190 336 301 271 277 331 350 350 358 1 310 331 333 340 14 8 25 66 209 138 81 123 150 189 276 149 122 134 180 177 185 200 232 260 182 178 244 294 98 41 48 299 285 291 301 276 286 322 310 178 231 266 296 306 360 330 323 38 53 44 48 49 31 22 9 360 350 347
347 346 341 340 337 339 344 343 344 346 340 328 314 315 318 316 319 319 318 163 346 359 327 334 224 297 352 349 358 23 335 330 329 328 356 350 21 18 251 222 188 121 136 221 268 17 123 174 192 177 190 222 238 351 141 196 242 11 109 3 28 315 291 273 270 268 289 323 295 163 176 247 273 246 136 251 37 55 40 32 36 29 26 23 20 20 17 16
344 345 344 341 337 337 337 338 343 341 332 325 312 313 322 322 318 315 118 206 328 44 30 340 224 311 343 346 17 24 360 349 356 341 347 356 8 16 202 155 134 113 94 246 272 342 83 186 191 184 214 247 54 38 23 221 248 88 130 146 148 169 165 171 260 274 208 274 290 110 153 256 279 241 194 248 72 47 19 25 28 16 23 26 26 27 25 22
341 343 344 343 340 336 335 336 338 337 333 326 318 319 324 329 327 215 234 285 342 11 302 315 304 322 341 345 33 18 19 358 357 347 3 97 13 50 114 116 122 129 109 260 273 75 83 72 142 194 274 38 75 67 38 46 78 128 180 254 239 197 163 140 202 242 233 239 343 38 299 291 302 269 47 48 75 34 360 6 19 17 24 26 26 25 20 15
339 341 341 342 342 337 336 336 335 337 334 322 324 322 317 332 43 163 294 311 48 343 330 357 350 347 11 28 333 14 20 351 359 1 23 46 19 70 112 128 125 184 212 199 220 152 126 162 143 84 40 80 111 113 72 80 126 210 257 291 286 249 187 179 154 177 246 244 64 1 287 272 270 268 322 36 101 76 12 348 6 11 15 19 20 18 14 10
337 339 339 341 342 339 339 337 335 337 326 320 325 318 316 332 292 229 297 323 333 347 6 20 358 15 29 4 275 356 337 334 10 18 19 347 340 64 18 330 7 278 271 134 216 219 185 166 84 75 97 99 239 208 144 143 165 236 256 288 301 306 281 259 250 218 256 32 95 3 308 261 259 270 302 331 2 47 46 347 359 3 7 14 14 10 8 7
336 336 337 341 343 342 342 338 335 330 314 322 314 318 35 46 282 192 279 315 348 18 16 335 334 350 323 291 294 354 285 265 8 12 51 310 300 70 58 341 340 290 288 8 327 310 273 121 100 148 127 55 274 252 236 177 153 212 263 320 306 317 309 291 300 287 283 58 139 135 347 267 263 274 330 349 9 40 53 37 32 26 18 13 10 6 4 2
333 334 335 339 343 344 344 341 335 320 298 311 310 352 47 303 266 144 271 289 313 356 25 359 326 304 254 336 1 335 253 192 8 335 294 278 248 205 128 156 337 306 247 276 311 339 292 237 98 149 63 13 252 290 344 354 125 157 33 339 285 286 289 290 314 309 298 305 164 168 249 232 243 105 105 61 46 70 82 72 56 37 24 14 8 6 0 357
332 334 335 339 342 342 345 344 335 313 254 199 35 58 115 261 259 206 271 298 315 314 279 159 315 306 206 49 31 10 284 102 21 323 298 333 282 344 57 85 19 342 250 268 63 71 265 265 56 36 349 357 189 69 6 285 206 106 92 268 256 276 276 277 313 310 297 302 213 188 227 223 246 3 109 111 101 107 86 49 38 28 21 12 6 3 356 353
333 335 336 339 343 347 350 347 343 304 210 160 63 79 195 247 266 193 259 345 349 327 306 243 339 326 302 343 69 71 52 308 341 333 272 200 315 13 54 44 30 351 332 320 221 151 276 262 92 82 67 55 17 63 9 294 291 139 198 228 105 38 301 273 276 140 248 279 248 179 245 245 267 307 128 134 116 69 32 19 15 16 15 8 4 359 352 347
335 338 339 345 354 356 354 353 354 185 161 119 94 217 230 217 190 206 21 356 316 344 318 296 19 355 300 297 345 39 349 312 325 332 307 222 27 138 120 76 75 322 347 318 245 123 293 278 99 96 121 87 27 125 99 21 341 242 226 109 101 63 304 274 277 278 256 267 252 167 262 268 278 295 154 141 77 33 19 8 4 5 6 1 357 351 345 342
336 338 342 355 2 359 359 359 356 152 126 99 125 248 233 167 331 254 176 353 272 200 276 262 341 7 272 280 318 331 332 336 359 338 317 303 113 127 80 85 138 335 359 301 271 85 277 276 60 81 201 94 87 232 172 81 36 339 320 95 88 261 242 165 265 294 285 281 278 183 238 267 245 216 204 132 47 20 2 5 3 358 355 350 347 344 341 339
339 339 345 1 357 357 2 1 6 151 119 73 267 228 205 265 331 191 192 199 262 227 237 254 315 6 189 240 307 323 340 338 344 341 311 318 46 109 69 36 144 148 3 317 300 109 219 284 304 156 181 354 199 216 228 146 104 56 190 133 46 286 278 262 272 303 288 287 294 280 243 262 225 176 172 106 55 23 5 3 352 341 337 335 337 338 337 336
339 337 345 353 348 349 357 12 104 131 94 41 232 166 357 286 206 191 208 194 197 235 256 209 206 271 254 211 288 321 5 318 301 297 306 329 339 100 86 9 102 144 279 332 303 227 166 232 274 163 168 268 235 195 265 245 150 181 200 200 187 187 286 293 256 276 283 282 290 284 275 268 187 117 125 123 86 35 11 349 332 326 326 329 335 336 336 334
342 342 326 338 343 347 360 43 68 65 63 106 196 175 157 282 192 207 212 197 192 282 274 183 175 262 296 302 249 238 254 259 230 260 274 211 249 30 76 343 3 102 197 217 201 238 198 218 264 267 247 259 267 59 360 342 347 296 242 237 220 189 236 273 260 154 134 274 281 288 288 288 159 138 131 123 87 26 6 343 332 330 330 335 338 337 335 332
354 354 322 335 345 345 2 51 51 39 68 134 63 200 220 243 206 208 207 206 226 323 171 165 103 206 254 300 276 202 251 264 193 220 258 215 265 10 71 210 323 125 242 298 105 36 319 242 253 264 264 278 34 47 23 360 18 27 303 297 141 194 231 264 276 296 181 248 315 300 274 279 74 131 131 112 68 17 360 347 339 335 335 337 336 333 330 327
351 339 327 344 356 346 2 50 39 22 57 79 115 191 210 210 202 204 196 204 217 231 203 203 199 213 227 279 243 203 219 235 200 192 260 240 15 20 333 226 212 219 238 273 97 118 191 233 250 265 266 124 113 129 105 65 143 181 232 141 163 203 27 286 292 348 255 239 242 263 259 267 97 137 152 135 82 11 353 349 341 334 332 332 330 328 325 324
340 339 357 11 10 3 25 76 357 339 353 20 61 114 224 223 223 227 219 221 209 184 199 221 192 194 118 111 248 214 201 241 232 182 355 248 234 27 4 191 152 27 272 237 79 110 218 222 234 289 297 325 177 186 149 142 184 227 220 115 128 87 84 57 145 114 257 235 222 251 267 253 134 159 271 303 15 360 349 346 340 333 329 328 327 325 324 323
338 350 44 30 21 28 91 112 102 109 279 308 346 10 333 245 219 223 243 242 210 197 200 60 118 143 111 126 228 221 214 247 282 10 32 284 233 57 24 50 155 263 320 286 87 231 265 263 203 278 302 308 301 318 332 330 350 226 204 142 179 169 150 223 260 242 252 221 201 238 265 279 286 302 307 315 350 353 342 339 336 330 324 321 321 321 321 321
1 27 20 17 26 50 82 83 64 89 141 278 296 4 345 249 206 236 233 218 211 209 206 95 130 138 120 192 246 245 216 199 346 350 306 260 229 60 12 4 167 212 277 27 73 74 312 279 235 246 255 264 287 315 33 346 305 286 281 242 187 176 174 223 254 249 259 275 245 239 258 281 294 301 304 319 348 345 335 332 329 322 318 317 316 316 317 317
47 71 357 346 18 53 78 63 36 49 123 219 254 70 298 278 313 262 209 205 213 202 204 174 183 197 184 194 244 257 213 154 149 265 261 246 295 20 343 279 227 233 227 246 346 77 257 265 246 241 245 258 286 304 358 258 279 281 289 287 231 162 161 193 229 249 289 307 276 255 262 279 292 301 308 329 344 334 326 323 319 315 314 314 314 315 316 315
42 112 93 111 15 51 73 24 25 63 107 79 196 173 304 296 312 288 195 174 170 204 219 197 202 226 218 178 252 279 260 227 208 215 238 281 295 254 148 96 240 243 132 199 20 50 257 271 24 55 265 270 282 287 274 250 263 267 274 283 279 214 178 201 237 257 271 271 275 290 294 289 292 299 312 337 333 320 317 315 314 313 313 314 316 316 317 317
50 96 113 139 143 152 196 346 18 93 93 51 123 197 224 245 280 288 181 167 135 178 216 245 239 218 203 192 226 250 252 263 267 256 207 192 254 246 259 266 156 75 2 321 42 25 254 259 63 77 283 285 280 286 286 240 259 271 266 278 285 258 221 221 248 268 267 256 265 283 291 288 287 297 317 326 317 313 314 314 315 316 317 319 318 316 317 318
46 78 135 165 137 107 99 359 15 123 78 50 215 206 201 221 256 292 196 207 242 144 187 236 294 112 148 191 210 233 243 215 267 268 195 187 261 226 236 271 133 89 2 79 57 20 255 304 61 92 290 294 206 93 244 180 242 283 303 339 334 296 253 229 261 279 270 264 271 281 286 286 296 327 323 316 315 318 320 321 321 319 320 320 316 314 315 315
354 336 346 143 115 77 23 12 42 234 190 147 235 182 184 215 244 291 237 213 228 213 193 215 154 110 115 175 214 248 277 263 266 267 224 228 269 261 283 298 162 149 127 112 36 32 232 297 67 47 309 296 125 5 297 238 188 231 30 24 7 348 336 266 268 272 267 281 291 291 290 297 331 336 322 316 319 323 325 326 322 317 316 316 313 311 311 316
341 344 342 6 77 27 3 53 75 321 294 223 218 198 229 242 211 241 276 221 219 236 233 224 194 172 224 214 226 266 305 305 287 289 276 258 259 274 286 186 151 145 146 151 157 31 292 269 9 19 301 270 24 331 311 296 175 147 73 29 5 352 337 303 287 287 281 284 296 299 304 321 331 329 323 321 324 324 326 327 320 313 312 312 311 313 318 322